Location: Cartignies
(50.0929°N, 3.8447°E)
Time: 14:11:49
(UTC+00:00)

BREEZE M DEB (TANK) - Pass Details

Date: 12 January 2026
Orbit: 295 x 13743 km, 49.5° (Epoch: 16 February)

Event Time Altitude Azimuth Distance (km) Brightness Sun altitude
Rises 17:11:50 0° 279° (W) 2,052 6.9 -10.1°
Reaches altitude 10° 17:13:37 10° 268° (W) 1,161 5.8 -10.4°
Maximum altitude 17:15:36 34° 198° (SSW) 577 3.3 -10.6°
Drops below altitude 10° 17:18:27 10° 130° (SE) 1,687 5.0 -11.1°
Enters shadow 17:22:01 -1° 122° (ESE) 3,482 6.5 -11.6°
